Time,TemperatureF,DewpointF,PressureIn,WindDirection,WindDirectionDegrees,WindSpeedMPH,WindSpeedGustMPH,Humidity,HourlyPrecipIn,Conditions,Clouds,dailyrainin,SoftwareType,DateUTC
2013-03-16 00:00:00,54.6,23.8,29.99,West,265,12.0,25.0,30,0.00,,SCT,0.00,VWS V14.01,2013-03-16 07:00:00,
2013-03-16 00:05:00,54.6,23.0,29.98,West,259,14.0,26.0,29,0.00,,SCT,0.00,VWS V14.01,2013-03-16 07:05:00,
2013-03-16 00:10:00,54.8,23.2,29.98,West,275,18.0,27.0,29,0.00,,SCT,0.00,VWS V14.01,2013-03-16 07:10:00,
2013-03-16 00:15:00,54.8,22.3,29.98,West,261,14.0,14.0,28,0.00,,SCT,0.00,VWS V14.01,2013-03-16 07:15:00,
2013-03-16 00:20:00,54.9,22.4,29.98,WSW,254,18.0,24.0,28,0.00,,SCT,0.00,VWS V14.01,2013-03-16 07:20:00,
2013-03-16 00:25:00,54.9,21.6,29.98,WSW,244,17.0,24.0,27,0.00,,SCT,0.00,VWS V14.01,2013-03-16 07:25:00,
2013-03-16 00:30:00,55.0,21.6,29.98,West,260,17.0,18.0,27,0.00,,SCT,0.00,VWS V14.01,2013-03-16 07:30:00,
2013-03-16 00:35:00,55.0,21.6,29.98,WSW,241,22.0,24.0,27,0.00,,SCT,0.00,VWS V14.01,2013-03-16 07:35:00,
2013-03-16 00:40:00,54.9,19.8,29.98,WSW,244,17.0,24.0,25,0.00,,SCT,0.00,VWS V14.01,2013-03-16 07:40:00,
2013-03-16 00:45:00,54.8,21.5,29.98,WSW,237,18.0,25.0,27,0.00,,SCT,0.00,VWS V14.01,2013-03-16 07:45:00,
2013-03-16 00:50:00,54.8,20.6,29.98,WSW,252,17.0,25.0,26,0.00,,SCT,0.00,VWS V14.01,2013-03-16 07:50:00,
2013-03-16 00:55:00,54.8,21.5,29.97,WSW,238,17.0,25.0,27,0.00,,SCT,0.00,VWS V14.01,2013-03-16 07:55:00,
2013-03-16 01:00:00,54.8,18.7,29.98,WSW,249,20.0,26.0,24,0.00,,SCT,0.00,VWS V14.01,2013-03-16 08:00:00,
2013-03-16 01:05:00,54.8,19.7,29.97,West,260,14.0,24.0,25,0.00,,SCT,0.00,VWS V14.01,2013-03-16 08:05:00,
2013-03-16 01:10:00,54.8,19.7,29.97,WSW,246,19.0,24.0,25,0.00,,SCT,0.00,VWS V14.01,2013-03-16 08:10:00,
2013-03-16 01:15:00,54.6,20.4,29.97,WSW,238,16.0,24.0,26,0.00,,SCT,0.00,VWS V14.01,2013-03-16 08:15:00,
2013-03-16 01:20:00,54.6,17.6,29.97,West,265,13.0,25.0,23,0.00,,SCT,0.00,VWS V14.01,2013-03-16 08:20:00,
2013-03-16 01:25:00,55.0,16.9,29.97,West,259,24.0,25.0,22,0.00,,SCT,0.00,VWS V14.01,2013-03-16 08:25:00,
2013-03-16 01:30:00,55.2,16.0,29.97,SW,234,17.0,25.0,21,0.00,,SCT,0.00,VWS V14.01,2013-03-16 08:30:00,
2013-03-16 01:35:00,55.3,17.1,29.97,West,273,18.0,23.0,22,0.00,,SCT,0.00,VWS V14.01,2013-03-16 08:35:00,
2013-03-16 01:40:00,55.4,15.0,29.97,SW,236,14.0,23.0,20,0.00,,SCT,0.00,VWS V14.01,2013-03-16 08:40:00,
2013-03-16 01:45:00,55.5,18.3,29.97,West,273,11.0,23.0,23,0.00,,SCT,0.00,VWS V14.01,2013-03-16 08:45:00,
2013-03-16 01:50:00,55.3,20.1,29.97,West,259,11.0,21.0,25,0.00,,SCT,0.00,VWS V14.01,2013-03-16 08:50:00,
2013-03-16 01:55:00,54.9,19.8,29.97,WSW,250,12.0,21.0,25,0.00,,SCT,0.00,VWS V14.01,2013-03-16 08:55:00,
2013-03-16 02:00:00,54.6,19.5,29.97,WSW,248,13.0,21.0,25,0.00,,SCT,0.00,VWS V14.01,2013-03-16 09:00:00,
2013-03-16 02:05:00,54.6,13.2,29.97,SW,236,13.0,21.0,19,0.00,,SCT,0.00,VWS V14.01,2013-03-16 09:05:00,
2013-03-16 02:10:00,55.1,13.6,29.97,WSW,250,11.0,22.0,19,0.00,,SCT,0.00,VWS V14.01,2013-03-16 09:10:00,
2013-03-16 02:15:00,55.5,17.3,29.97,West,281,9.0,22.0,22,0.00,,SCT,0.00,VWS V14.01,2013-03-16 09:15:00,
2013-03-16 02:20:00,55.3,16.0,29.97,WSW,252,8.0,18.0,21,0.00,,SCT,0.00,VWS V14.01,2013-03-16 09:20:00,
2013-03-16 02:25:00,55.0,15.8,29.97,WSW,239,8.0,18.0,21,0.00,,SCT,0.00,VWS V14.01,2013-03-16 09:25:00,
2013-03-16 02:30:00,54.8,16.7,29.97,WSW,240,7.0,18.0,22,0.00,,SCT,0.00,VWS V14.01,2013-03-16 09:30:00,
2013-03-16 02:35:00,54.8,13.4,29.97,West,260,19.0,20.0,19,0.00,,SCT,0.00,VWS V14.01,2013-03-16 09:35:00,
2013-03-16 02:40:00,55.1,13.6,29.97,WSW,254,10.0,20.0,19,0.00,,SCT,0.00,VWS V14.01,2013-03-16 09:40:00,
2013-03-16 02:45:00,55.3,13.8,29.97,WSW,246,8.0,20.0,19,0.00,,SCT,0.00,VWS V14.01,2013-03-16 09:45:00,
2013-03-16 02:50:00,55.5,13.9,29.97,WSW,248,10.0,18.0,19,0.00,,SCT,0.00,VWS V14.01,2013-03-16 09:50:00,
2013-03-16 02:55:00,55.5,16.2,29.97,SW,236,15.0,18.0,21,0.00,,SCT,0.00,VWS V14.01,2013-03-16 09:55:00,
2013-03-16 03:00:00,55.4,15.0,29.97,SW,236,11.0,18.0,20,0.00,,SCT,0.00,VWS V14.01,2013-03-16 10:00:00,
2013-03-16 03:05:00,55.3,17.1,29.97,WSW,258,8.0,14.0,22,0.00,,SCT,0.00,VWS V14.01,2013-03-16 10:05:00,
2013-03-16 03:10:00,55.0,18.9,29.97,WSW,257,7.0,14.0,24,0.00,,SCT,0.00,VWS V14.01,2013-03-16 10:10:00,
2013-03-16 03:15:00,54.7,19.6,29.96,West,265,7.0,14.0,25,0.00,,SCT,0.00,VWS V14.01,2013-03-16 10:15:00,
2013-03-16 03:20:00,54.3,20.2,29.96,SW,236,8.0,12.0,26,0.00,,SCT,0.00,VWS V14.01,2013-03-16 10:20:00,
2013-03-16 03:25:00,53.8,18.8,29.96,West,261,8.0,13.0,25,0.00,,SCT,0.00,VWS V14.01,2013-03-16 10:25:00,
2013-03-16 03:30:00,53.3,19.3,29.96,WSW,247,11.0,15.0,26,0.00,,SCT,0.00,VWS V14.01,2013-03-16 10:30:00,
2013-03-16 03:35:00,53.0,20.8,29.96,WSW,250,10.0,13.0,28,0.00,,SCT,0.00,VWS V14.01,2013-03-16 10:35:00,
2013-03-16 03:40:00,52.6,19.6,29.95,SW,230,8.0,15.0,27,0.00,,SCT,0.00,VWS V14.01,2013-03-16 10:40:00,
2013-03-16 03:45:00,52.3,20.2,29.95,WSW,246,11.0,15.0,28,0.00,,SCT,0.00,VWS V14.01,2013-03-16 10:45:00,
2013-03-16 03:50:00,52.2,20.1,29.95,WSW,243,12.0,12.0,28,0.00,,SCT,0.00,VWS V14.01,2013-03-16 10:50:00,
2013-03-16 03:55:00,52.2,19.2,29.94,WSW,246,8.0,15.0,27,0.00,,SCT,0.00,VWS V14.01,2013-03-16 10:55:00,
2013-03-16 04:00:00,52.3,21.0,29.94,WSW,254,8.0,15.0,29,0.00,,SCT,0.00,VWS V14.01,2013-03-16 11:00:00,
2013-03-16 04:05:00,52.2,19.2,29.94,West,259,15.0,15.0,27,0.00,,SCT,0.00,VWS V14.01,2013-03-16 11:05:00,
2013-03-16 04:10:00,52.4,19.4,29.94,SW,217,9.0,17.0,27,0.00,,SCT,0.00,VWS V14.01,2013-03-16 11:10:00,
2013-03-16 04:15:00,52.7,21.4,29.94,West,271,13.0,17.0,29,0.00,,SCT,0.00,VWS V14.01,2013-03-16 11:15:00,
2013-03-16 04:20:00,52.5,20.4,29.94,WSW,249,10.0,15.0,28,0.00,,SCT,0.00,VWS V14.01,2013-03-16 11:20:00,
2013-03-16 04:25:00,52.4,19.4,29.94,West,262,11.0,15.0,27,0.00,,SCT,0.00,VWS V14.01,2013-03-16 11:25:00,
2013-03-16 04:30:00,52.1,19.2,29.94,WSW,257,8.0,15.0,27,0.00,,SCT,0.00,VWS V14.01,2013-03-16 11:30:00,
2013-03-16 04:35:00,51.9,19.8,29.93,WSW,244,6.0,13.0,28,0.00,,SCT,0.00,VWS V14.01,2013-03-16 11:35:00,
2013-03-16 04:40:00,51.8,20.6,29.93,WSW,257,11.0,14.0,29,0.00,,SCT,0.00,VWS V14.01,2013-03-16 11:40:00,
2013-03-16 04:45:00,51.7,21.3,29.93,West,259,6.0,14.0,30,0.00,,SCT,0.00,VWS V14.01,2013-03-16 11:45:00,
2013-03-16 04:50:00,51.7,21.3,29.93,SW,228,12.0,14.0,30,0.00,,SCT,0.00,VWS V14.01,2013-03-16 11:50:00,
2013-03-16 04:55:00,51.7,19.7,29.93,WSW,244,10.0,14.0,28,0.00,,SCT,0.00,VWS V14.01,2013-03-16 11:55:00,
2013-03-16 05:00:00,51.7,18.8,29.93,WSW,249,11.0,14.0,27,0.00,,SCT,0.00,VWS V14.01,2013-03-16 12:00:00,
2013-03-16 05:05:00,51.8,22.1,29.93,WSW,253,7.0,12.0,31,0.00,,SCT,0.00,VWS V14.01,2013-03-16 12:05:00,
2013-03-16 05:10:00,51.8,21.4,29.93,WSW,248,7.0,14.0,30,0.00,,SCT,0.00,VWS V14.01,2013-03-16 12:10:00,
2013-03-16 05:15:00,51.7,20.5,29.93,WSW,238,10.0,14.0,29,0.00,,SCT,0.00,VWS V14.01,2013-03-16 12:15:00,
2013-03-16 05:20:00,51.6,19.6,29.93,SW,225,12.0,14.0,28,0.00,,SCT,0.00,VWS V14.01,2013-03-16 12:20:00,
2013-03-16 05:25:00,51.5,21.1,29.93,WSW,240,10.0,15.0,30,0.00,,SCT,0.00,VWS V14.01,2013-03-16 12:25:00,
2013-03-16 05:30:00,51.5,21.9,29.93,WSW,239,7.0,17.0,31,0.00,,SCT,0.00,VWS V14.01,2013-03-16 12:30:00,
2013-03-16 05:35:00,51.5,21.9,29.93,WSW,238,13.0,19.0,31,0.00,,SCT,0.00,VWS V14.01,2013-03-16 12:35:00,
2013-03-16 05:40:00,51.6,21.2,29.92,West,261,13.0,20.0,30,0.00,,SCT,0.00,VWS V14.01,2013-03-16 12:40:00,
2013-03-16 05:45:00,51.4,21.8,29.92,WSW,252,19.0,19.0,31,0.00,,SCT,0.00,VWS V14.01,2013-03-16 12:45:00,
2013-03-16 05:50:00,51.3,20.9,29.92,West,263,12.0,23.0,30,0.00,,SCT,0.00,VWS V14.01,2013-03-16 12:50:00,
2013-03-16 05:55:00,51.2,21.6,29.91,WSW,252,15.0,25.0,31,0.00,,SCT,0.00,VWS V14.01,2013-03-16 12:55:00,
2013-03-16 06:00:00,51.1,20.8,29.91,West,278,22.0,25.0,30,0.00,,SCT,0.00,VWS V14.01,2013-03-16 13:00:00,
2013-03-16 06:05:00,51.1,20.8,29.91,WSW,239,17.0,25.0,30,0.00,,SCT,0.00,VWS V14.01,2013-03-16 13:05:00,
2013-03-16 06:10:00,51.2,18.4,29.90,WSW,252,18.0,25.0,27,0.00,,SCT,0.00,VWS V14.01,2013-03-16 13:10:00,
2013-03-16 06:15:00,51.5,18.6,29.91,SW,229,13.0,26.0,27,0.00,,SCT,0.00,VWS V14.01,2013-03-16 13:15:00,
2013-03-16 06:20:00,51.8,18.0,29.91,SW,232,20.0,30.0,26,0.00,,SCT,0.00,VWS V14.01,2013-03-16 13:20:00,
2013-03-16 06:25:00,52.1,17.4,29.91,SW,234,16.0,30.0,25,0.00,,SCT,0.00,VWS V14.01,2013-03-16 13:25:00,
2013-03-16 06:30:00,52.3,16.6,29.91,WSW,245,20.0,30.0,24,0.00,,SCT,0.00,VWS V14.01,2013-03-16 13:30:00,
2013-03-16 06:35:00,52.5,17.7,29.91,SSW,199,17.0,26.0,25,0.00,,SCT,0.00,VWS V14.01,2013-03-16 13:35:00,
2013-03-16 06:40:00,52.8,16.0,29.91,West,275,19.0,27.0,23,0.00,,SCT,0.00,VWS V14.01,2013-03-16 13:40:00,
2013-03-16 06:45:00,53.0,15.2,29.91,WSW,257,17.0,27.0,22,0.00,,SCT,0.00,VWS V14.01,2013-03-16 13:45:00,
2013-03-16 06:50:00,53.2,15.4,29.91,SW,229,15.0,27.0,22,0.00,,SCT,0.00,VWS V14.01,2013-03-16 13:50:00,
2013-03-16 06:55:00,53.3,16.5,29.91,West,265,18.0,29.0,23,0.00,,SCT,0.00,VWS V14.01,2013-03-16 13:55:00,
2013-03-16 07:00:00,53.3,15.4,29.91,WSW,250,17.0,29.0,22,0.00,,SCT,0.00,VWS V14.01,2013-03-16 14:00:00,
2013-03-16 07:05:00,53.3,16.5,29.91,SW,219,16.0,28.0,23,0.00,,SCT,0.00,VWS V14.01,2013-03-16 14:05:00,
2013-03-16 07:10:00,53.2,15.4,29.91,West,262,13.0,28.0,22,0.00,,SCT,0.00,VWS V14.01,2013-03-16 14:10:00,
2013-03-16 07:15:00,53.3,16.5,29.91,SW,233,22.0,28.0,23,0.00,,SCT,0.00,VWS V14.01,2013-03-16 14:15:00,
2013-03-16 07:20:00,53.5,16.6,29.91,West,270,15.0,26.0,23,0.00,,SCT,0.00,VWS V14.01,2013-03-16 14:20:00,
2013-03-16 07:25:00,53.4,15.5,29.92,WSW,253,12.0,26.0,22,0.00,,SCT,0.00,VWS V14.01,2013-03-16 14:25:00,
2013-03-16 07:30:00,53.4,15.5,29.92,WSW,246,13.0,26.0,22,0.00,,SCT,0.00,VWS V14.01,2013-03-16 14:30:00,
2013-03-16 07:35:00,53.3,16.5,29.92,WSW,249,15.0,22.0,23,0.00,,SCT,0.00,VWS V14.01,2013-03-16 14:35:00,
2013-03-16 07:40:00,53.3,16.5,29.92,West,281,22.0,22.0,23,0.00,,SCT,0.00,VWS V14.01,2013-03-16 14:40:00,
2013-03-16 07:45:00,53.4,16.5,29.93,SW,215,10.0,25.0,23,0.00,,SCT,0.00,VWS V14.01,2013-03-16 14:45:00,
2013-03-16 07:50:00,53.5,16.6,29.93,WSW,254,13.0,21.0,23,0.00,,SCT,0.00,VWS V14.01,2013-03-16 14:50:00,
2013-03-16 07:55:00,53.7,16.8,29.92,WNW,286,11.0,21.0,23,0.00,,SCT,0.00,VWS V14.01,2013-03-16 14:55:00,
2013-03-16 08:00:00,53.8,14.8,29.93,WSW,245,14.0,22.0,21,0.00,,SCT,0.00,VWS V14.01,2013-03-16 15:00:00,
2013-03-16 08:05:00,54.1,17.1,29.93,West,267,17.0,22.0,23,0.00,,SCT,0.00,VWS V14.01,2013-03-16 15:05:00,
2013-03-16 08:10:00,54.6,16.5,29.93,WSW,245,21.0,24.0,22,0.00,,SCT,0.00,VWS V14.01,2013-03-16 15:10:00,
2013-03-16 08:15:00,55.1,19.0,29.93,WSW,248,12.0,24.0,24,0.00,,SCT,0.00,VWS V14.01,2013-03-16 15:15:00,
2013-03-16 08:20:00,55.1,18.0,29.93,WSW,254,14.0,24.0,23,0.00,,SCT,0.00,VWS V14.01,2013-03-16 15:20:00,
2013-03-16 08:25:00,55.3,19.1,29.94,SW,231,15.0,24.0,24,0.00,,SCT,0.00,VWS V14.01,2013-03-16 15:25:00,
2013-03-16 08:30:00,55.6,17.4,29.93,WSW,238,12.0,24.0,22,0.00,,SCT,0.00,VWS V14.01,2013-03-16 15:30:00,
2013-03-16 08:35:00,56.0,19.7,29.94,WNW,283,24.0,24.0,24,0.00,,SCT,0.00,VWS V14.01,2013-03-16 15:35:00,
2013-03-16 08:40:00,56.4,19.1,29.94,SW,229,13.0,25.0,23,0.00,,SCT,0.00,VWS V14.01,2013-03-16 15:40:00,
2013-03-16 08:45:00,56.8,20.4,29.94,WSW,251,17.0,25.0,24,0.00,,SCT,0.00,VWS V14.01,2013-03-16 15:45:00,
2013-03-16 08:50:00,57.0,21.5,29.94,SW,234,11.0,23.0,25,0.00,,SCT,0.00,VWS V14.01,2013-03-16 15:50:00,
2013-03-16 08:55:00,57.2,21.7,29.94,WSW,242,13.0,24.0,25,0.00,,SCT,0.00,VWS V14.01,2013-03-16 15:55:00,
2013-03-16 09:00:00,57.5,22.9,29.95,WSW,242,12.0,24.0,26,0.00,,SCT,0.00,VWS V14.01,2013-03-16 16:00:00,
2013-03-16 09:05:00,57.7,21.2,29.95,WSW,254,18.0,25.0,24,0.00,,SCT,0.00,VWS V14.01,2013-03-16 16:05:00,
2013-03-16 09:10:00,57.9,22.3,29.95,SW,234,11.0,25.0,25,0.00,,SCT,0.00,VWS V14.01,2013-03-16 16:10:00,
2013-03-16 09:15:00,58.1,21.5,29.95,SW,236,13.0,25.0,24,0.00,,SCT,0.00,VWS V14.01,2013-03-16 16:15:00,
2013-03-16 09:20:00,58.2,22.6,29.95,SW,232,13.0,20.0,25,0.00,,SCT,0.00,VWS V14.01,2013-03-16 16:20:00,
2013-03-16 09:25:00,58.2,24.4,29.95,WSW,241,17.0,21.0,27,0.00,,SCT,0.00,VWS V14.01,2013-03-16 16:25:00,
2013-03-16 09:30:00,58.3,22.6,29.95,WSW,240,12.0,21.0,25,0.00,,SCT,0.00,VWS V14.01,2013-03-16 16:30:00,
2013-03-16 09:35:00,58.5,23.8,29.95,West,263,13.0,21.0,26,0.00,,SCT,0.00,VWS V14.01,2013-03-16 16:35:00,
2013-03-16 09:40:00,58.7,24.8,29.95,WSW,251,10.0,21.0,27,0.00,,SCT,0.00,VWS V14.01,2013-03-16 16:40:00,
2013-03-16 09:45:00,59.2,24.4,29.95,West,265,11.0,12.0,26,0.00,,SCT,0.00,VWS V14.01,2013-03-16 16:45:00,
2013-03-16 09:50:00,59.7,24.8,29.95,SW,227,11.0,18.0,26,0.00,,SCT,0.00,VWS V14.01,2013-03-16 16:50:00,
2013-03-16 09:55:00,60.2,26.1,29.95,WSW,243,10.0,18.0,27,0.00,,SCT,0.00,VWS V14.01,2013-03-16 16:55:00,
2013-03-16 10:00:00,60.8,26.6,29.95,WSW,240,10.0,10.0,27,0.00,,SCT,0.00,VWS V14.01,2013-03-16 17:00:00,
2013-03-16 10:05:00,61.4,25.3,29.95,WSW,245,10.0,18.0,25,0.00,,SCT,0.00,VWS V14.01,2013-03-16 17:05:00,
2013-03-16 10:10:00,62.2,27.8,29.96,WSW,239,12.0,21.0,27,0.00,,SCT,0.00,VWS V14.01,2013-03-16 17:10:00,
2013-03-16 10:15:00,62.6,28.2,29.95,WSW,245,18.0,18.0,27,0.00,,SCT,0.00,VWS V14.01,2013-03-16 17:15:00,
2013-03-16 10:20:00,62.9,27.5,29.95,WSW,250,12.0,20.0,26,0.00,,SCT,0.00,VWS V14.01,2013-03-16 17:20:00,
2013-03-16 10:25:00,63.2,27.8,29.95,SW,229,18.0,20.0,26,0.00,,SCT,0.00,VWS V14.01,2013-03-16 17:25:00,
2013-03-16 10:30:00,63.6,27.2,29.95,SW,232,12.0,14.0,25,0.00,,SCT,0.00,VWS V14.01,2013-03-16 17:30:00,
2013-03-16 10:35:00,64.0,27.5,29.95,West,262,12.0,19.0,25,0.00,,SCT,0.00,VWS V14.01,2013-03-16 17:35:00,
2013-03-16 10:40:00,64.2,26.7,29.95,WNW,285,8.0,19.0,24,0.00,,SCT,0.00,VWS V14.01,2013-03-16 17:40:00,
2013-03-16 10:45:00,64.6,28.0,29.95,SW,230,15.0,15.0,25,0.00,,SCT,0.00,VWS V14.01,2013-03-16 17:45:00,
2013-03-16 10:50:00,65.0,29.3,29.95,SW,230,13.0,18.0,26,0.00,,SCT,0.00,VWS V14.01,2013-03-16 17:50:00,
2013-03-16 10:55:00,65.5,29.7,29.95,WSW,246,12.0,18.0,26,0.00,,SCT,0.00,VWS V14.01,2013-03-16 17:55:00,
2013-03-16 11:00:00,66.0,31.1,29.94,WSW,257,10.0,10.0,27,0.00,,SCT,0.00,VWS V14.01,2013-03-16 18:00:00,
2013-03-16 11:05:00,66.6,31.6,29.95,WSW,253,10.0,15.0,27,0.00,,SCT,0.00,VWS V14.01,2013-03-16 18:05:00,
2013-03-16 11:10:00,67.1,30.1,29.94,WSW,248,12.0,15.0,25,0.00,,SCT,0.00,VWS V14.01,2013-03-16 18:10:00,
2013-03-16 11:15:00,67.6,31.5,29.94,WSW,241,11.0,11.0,26,0.00,,SCT,0.00,VWS V14.01,2013-03-16 18:15:00,
2013-03-16 11:20:00,68.1,31.0,29.94,West,260,10.0,19.0,25,0.00,,SCT,0.00,VWS V14.01,2013-03-16 18:20:00,
2013-03-16 11:25:00,68.5,32.3,29.94,WSW,239,8.0,19.0,26,0.00,,SCT,0.00,VWS V14.01,2013-03-16 18:25:00,
2013-03-16 11:30:00,69.0,30.7,29.94,WSW,257,15.0,15.0,24,0.00,,SCT,0.00,VWS V14.01,2013-03-16 18:30:00,
2013-03-16 11:35:00,69.2,30.9,29.93,SW,228,11.0,18.0,24,0.00,,SCT,0.00,VWS V14.01,2013-03-16 18:35:00,
2013-03-16 11:40:00,69.4,32.1,29.93,West,269,18.0,19.0,25,0.00,,SCT,0.00,VWS V14.01,2013-03-16 18:40:00,
2013-03-16 11:45:00,69.3,33.0,29.94,WSW,246,13.0,13.0,26,0.00,,SCT,0.00,VWS V14.01,2013-03-16 18:45:00,
2013-03-16 11:50:00,69.0,33.7,29.94,West,271,15.0,24.0,27,0.00,,SCT,0.00,VWS V14.01,2013-03-16 18:50:00,
2013-03-16 11:55:00,69.0,31.8,29.94,SW,225,19.0,24.0,25,0.00,,SCT,0.00,VWS V14.01,2013-03-16 18:55:00,
2013-03-16 12:00:00,68.4,31.2,29.95,SSW,211,13.0,22.0,25,0.00,,SCT,0.00,VWS V14.01,2013-03-16 19:00:00,
2013-03-16 12:05:00,67.8,32.6,29.94,West,277,11.0,23.0,27,0.00,,SCT,0.00,VWS V14.01,2013-03-16 19:05:00,
2013-03-16 12:10:00,67.4,31.4,29.94,WSW,246,15.0,23.0,26,0.00,,SCT,0.00,VWS V14.01,2013-03-16 19:10:00,
2013-03-16 12:15:00,67.0,30.0,29.94,West,269,14.0,16.0,25,0.00,,SCT,0.00,VWS V14.01,2013-03-16 19:15:00,
2013-03-16 12:20:00,66.7,30.8,29.94,SW,229,11.0,21.0,26,0.00,,SCT,0.00,VWS V14.01,2013-03-16 19:20:00,
2013-03-16 12:25:00,67.0,30.0,29.94,SW,235,15.0,24.0,25,0.00,,SCT,0.00,VWS V14.01,2013-03-16 19:25:00,
2013-03-16 12:30:00,67.4,31.4,29.94,West,261,17.0,18.0,26,0.00,,SCT,0.00,VWS V14.01,2013-03-16 19:30:00,
2013-03-16 12:35:00,67.5,28.4,29.93,West,259,12.0,23.0,23,0.00,,SCT,0.00,VWS V14.01,2013-03-16 19:35:00,
2013-03-16 12:40:00,67.4,30.4,29.93,WSW,254,17.0,23.0,25,0.00,,SCT,0.00,VWS V14.01,2013-03-16 19:40:00,
2013-03-16 12:45:00,67.2,30.2,29.93,WSW,240,11.0,11.0,25,0.00,,SCT,0.00,VWS V14.01,2013-03-16 19:45:00,
2013-03-16 12:50:00,67.6,31.5,29.93,WSW,241,17.0,21.0,26,0.00,,SCT,0.00,VWS V14.01,2013-03-16 19:50:00,
2013-03-16 12:55:00,68.5,30.3,29.93,WSW,241,15.0,21.0,24,0.00,,SCT,0.00,VWS V14.01,2013-03-16 19:55:00,
2013-03-16 13:00:00,68.9,30.6,29.93,West,267,14.0,22.0,24,0.00,,SCT,0.00,VWS V14.01,2013-03-16 20:00:00,
2013-03-16 13:05:00,69.2,30.9,29.93,WSW,240,14.0,19.0,24,0.00,,SCT,0.00,VWS V14.01,2013-03-16 20:05:00,
2013-03-16 13:10:00,69.7,31.3,29.93,WSW,240,14.0,23.0,24,0.00,,SCT,0.00,VWS V14.01,2013-03-16 20:10:00,
2013-03-16 13:15:00,70.1,30.6,29.93,SSW,211,18.0,18.0,23,0.00,,SCT,0.00,VWS V14.01,2013-03-16 20:15:00,
2013-03-16 13:20:00,70.3,30.8,29.93,WSW,246,15.0,20.0,23,0.00,,SCT,0.00,VWS V14.01,2013-03-16 20:20:00,
2013-03-16 13:25:00,70.4,29.8,29.93,WSW,239,7.0,20.0,22,0.00,,SCT,0.00,VWS V14.01,2013-03-16 20:25:00,
2013-03-16 13:30:00,70.1,31.7,29.93,WSW,257,15.0,17.0,24,0.00,,SCT,0.00,VWS V14.01,2013-03-16 20:30:00,
2013-03-16 13:35:00,69.6,32.2,29.93,WSW,246,14.0,22.0,25,0.00,,SCT,0.00,VWS V14.01,2013-03-16 20:35:00,
2013-03-16 13:40:00,69.3,33.9,29.93,West,269,13.0,22.0,27,0.00,,SCT,0.00,VWS V14.01,2013-03-16 20:40:00,
2013-03-16 13:45:00,69.1,32.8,29.94,WSW,245,13.0,14.0,26,0.00,,SCT,0.00,VWS V14.01,2013-03-16 20:45:00,
2013-03-16 13:50:00,69.0,32.7,29.93,SW,225,12.0,21.0,26,0.00,,SCT,0.00,VWS V14.01,2013-03-16 20:50:00,
2013-03-16 13:55:00,68.6,30.4,29.93,West,265,12.0,21.0,24,0.00,,SCT,0.00,VWS V14.01,2013-03-16 20:55:00,
2013-03-16 14:00:00,68.0,30.9,29.93,WSW,249,12.0,15.0,25,0.00,,SCT,0.00,VWS V14.01,2013-03-16 21:00:00,
2013-03-16 14:05:00,68.1,30.0,29.92,West,259,14.0,18.0,24,0.00,,SCT,0.00,VWS V14.01,2013-03-16 21:05:00,
2013-03-16 14:10:00,68.4,28.1,29.93,SW,217,11.0,21.0,22,0.00,,SCT,0.00,VWS V14.01,2013-03-16 21:10:00,
2013-03-16 14:15:00,68.5,27.1,29.92,WSW,258,10.0,12.0,21,0.00,,SCT,0.00,VWS V14.01,2013-03-16 21:15:00,
2013-03-16 14:20:00,68.8,27.3,29.92,WSW,244,17.0,20.0,21,0.00,,SCT,0.00,VWS V14.01,2013-03-16 21:20:00,
2013-03-16 14:25:00,69.1,28.7,29.92,SW,216,12.0,20.0,22,0.00,,SCT,0.00,VWS V14.01,2013-03-16 21:25:00,
2013-03-16 14:30:00,69.5,26.7,29.92,SW,236,7.0,11.0,20,0.00,,SCT,0.00,VWS V14.01,2013-03-16 21:30:00,
2013-03-16 14:35:00,69.9,29.4,29.91,SW,227,17.0,19.0,22,0.00,,SCT,0.00,VWS V14.01,2013-03-16 21:35:00,
2013-03-16 14:40:00,70.3,27.4,29.91,WSW,248,8.0,20.0,20,0.00,,SCT,0.00,VWS V14.01,2013-03-16 21:40:00,
2013-03-16 14:45:00,70.4,28.6,29.91,SW,235,15.0,15.0,21,0.00,,SCT,0.00,VWS V14.01,2013-03-16 21:45:00,
2013-03-16 14:50:00,70.5,31.0,29.91,WSW,252,12.0,18.0,23,0.00,,SCT,0.00,VWS V14.01,2013-03-16 21:50:00,
2013-03-16 14:55:00,70.5,32.0,29.91,West,265,13.0,18.0,24,0.00,,SCT,0.00,VWS V14.01,2013-03-16 21:55:00,
2013-03-16 15:00:00,70.3,32.8,29.91,WSW,254,10.0,13.0,25,0.00,,SCT,0.00,VWS V14.01,2013-03-16 22:00:00,
2013-03-16 15:05:00,69.9,32.5,29.91,West,268,18.0,18.0,25,0.00,,SCT,0.00,VWS V14.01,2013-03-16 22:05:00,
2013-03-16 15:10:00,69.5,33.1,29.91,WSW,257,13.0,18.0,26,0.00,,SCT,0.00,VWS V14.01,2013-03-16 22:10:00,
2013-03-16 15:15:00,69.2,31.9,29.90,WSW,257,8.0,12.0,25,0.00,,SCT,0.00,VWS V14.01,2013-03-16 22:15:00,
2013-03-16 15:20:00,68.8,31.6,29.91,WSW,246,7.0,15.0,25,0.00,,SCT,0.00,VWS V14.01,2013-03-16 22:20:00,
2013-03-16 15:25:00,68.5,32.3,29.91,SW,221,7.0,15.0,26,0.00,,SCT,0.00,VWS V14.01,2013-03-16 22:25:00,
2013-03-16 15:30:00,68.5,32.3,29.90,West,266,6.0,11.0,26,0.00,,SCT,0.00,VWS V14.01,2013-03-16 22:30:00,
2013-03-16 15:35:00,68.7,32.5,29.90,WSW,252,8.0,13.0,26,0.00,,SCT,0.00,VWS V14.01,2013-03-16 22:35:00,
2013-03-16 15:40:00,69.0,33.7,29.90,West,277,12.0,21.0,27,0.00,,SCT,0.00,VWS V14.01,2013-03-16 22:40:00,
2013-03-16 15:45:00,69.5,34.1,29.90,WSW,243,12.0,13.0,27,0.00,,SCT,0.00,VWS V14.01,2013-03-16 22:45:00,
2013-03-16 15:50:00,69.6,33.2,29.90,West,277,11.0,18.0,26,0.00,,SCT,0.00,VWS V14.01,2013-03-16 22:50:00,
2013-03-16 15:55:00,69.4,35.8,29.91,WSW,241,12.0,18.0,29,0.00,,SCT,0.00,VWS V14.01,2013-03-16 22:55:00,
2013-03-16 16:00:00,69.0,35.5,29.90,West,262,8.0,11.0,29,0.00,,SCT,0.00,VWS V14.01,2013-03-16 23:00:00,
2013-03-16 16:05:00,68.6,36.0,29.90,SW,225,7.0,14.0,30,0.00,,SCT,0.00,VWS V14.01,2013-03-16 23:05:00,
2013-03-16 16:10:00,68.1,36.3,29.90,WSW,257,11.0,14.0,31,0.00,,SCT,0.00,VWS V14.01,2013-03-16 23:10:00,
2013-03-16 16:15:00,67.9,38.5,29.90,West,264,6.0,11.0,34,0.00,,SCT,0.00,VWS V14.01,2013-03-16 23:15:00,
2013-03-16 16:20:00,67.9,38.5,29.90,West,261,10.0,12.0,34,0.00,,SCT,0.00,VWS V14.01,2013-03-16 23:20:00,
2013-03-16 16:25:00,67.6,38.3,29.90,West,261,11.0,13.0,34,0.00,,SCT,0.00,VWS V14.01,2013-03-16 23:25:00,
2013-03-16 16:30:00,67.3,39.5,29.90,WSW,246,8.0,13.0,36,0.00,,SCT,0.00,VWS V14.01,2013-03-16 23:30:00,
2013-03-16 16:35:00,67.2,40.1,29.90,West,269,11.0,16.0,37,0.00,,SCT,0.00,VWS V14.01,2013-03-16 23:35:00,
2013-03-16 16:40:00,67.0,39.9,29.90,WSW,238,8.0,16.0,37,0.00,,SCT,0.00,VWS V14.01,2013-03-16 23:40:00,
2013-03-16 16:45:00,66.7,40.3,29.90,West,275,7.0,12.0,38,0.00,,SCT,0.00,VWS V14.01,2013-03-16 23:45:00,
2013-03-16 16:50:00,65.9,41.6,29.90,SW,225,6.0,15.0,41,0.00,,SCT,0.00,VWS V14.01,2013-03-16 23:50:00,
2013-03-16 16:55:00,65.3,41.6,29.90,WSW,246,8.0,16.0,42,0.00,,SCT,0.00,VWS V14.01,2013-03-16 23:55:00,
2013-03-16 17:00:00,64.9,42.5,29.89,West,272,12.0,13.0,44,0.00,,SCT,0.00,VWS V14.01,2013-03-17 00:00:00,
2013-03-16 17:05:00,64.4,43.8,29.89,WSW,246,8.0,17.0,47,0.00,,SCT,0.00,VWS V14.01,2013-03-17 00:05:00,
2013-03-16 17:10:00,63.7,43.7,29.90,WSW,237,8.0,20.0,48,0.00,,SCT,0.00,VWS V14.01,2013-03-17 00:10:00,
2013-03-16 17:15:00,63.1,44.2,29.90,WSW,257,17.0,18.0,50,0.00,,SCT,0.00,VWS V14.01,2013-03-17 00:15:00,
2013-03-16 17:20:00,62.5,44.7,29.90,WSW,245,14.0,22.0,52,0.00,,SCT,0.00,VWS V14.01,2013-03-17 00:20:00,
2013-03-16 17:25:00,61.8,44.5,29.90,West,269,11.0,22.0,53,0.00,,SCT,0.00,VWS V14.01,2013-03-17 00:25:00,
2013-03-16 17:30:00,61.2,44.4,29.90,West,281,11.0,17.0,54,0.00,,SCT,0.00,VWS V14.01,2013-03-17 00:30:00,
2013-03-16 17:35:00,60.7,44.9,29.90,West,273,14.0,18.0,56,0.00,,SCT,0.00,VWS V14.01,2013-03-17 00:35:00,
2013-03-16 17:40:00,60.2,44.5,29.90,WSW,243,10.0,18.0,56,0.00,,SCT,0.00,VWS V14.01,2013-03-17 00:40:00,
2013-03-16 17:45:00,59.6,44.8,29.90,WSW,253,12.0,15.0,58,0.00,,SCT,0.00,VWS V14.01,2013-03-17 00:45:00,
2013-03-16 17:50:00,59.1,44.8,29.90,SW,230,13.0,20.0,59,0.00,,SCT,0.00,VWS V14.01,2013-03-17 00:50:00,
2013-03-16 17:55:00,58.8,45.0,29.91,West,275,13.0,20.0,60,0.00,,SCT,0.00,VWS V14.01,2013-03-17 00:55:00,
2013-03-16 18:00:00,58.3,44.5,29.91,SW,234,13.0,19.0,60,0.00,,SCT,0.00,VWS V14.01,2013-03-17 01:00:00,
2013-03-16 18:05:00,58.0,44.6,29.90,West,260,8.0,21.0,61,0.00,,SCT,0.00,VWS V14.01,2013-03-17 01:05:00,
2013-03-16 18:10:00,57.6,45.1,29.90,West,273,13.0,21.0,63,0.00,,SCT,0.00,VWS V14.01,2013-03-17 01:10:00,
2013-03-16 18:15:00,57.3,45.2,29.90,SW,228,11.0,15.0,64,0.00,,SCT,0.00,VWS V14.01,2013-03-17 01:15:00,
2013-03-16 18:20:00,57.0,45.0,29.90,West,277,14.0,17.0,64,0.00,,SCT,0.00,VWS V14.01,2013-03-17 01:20:00,
2013-03-16 18:25:00,56.7,45.1,29.90,WSW,248,7.0,17.0,65,0.00,,SCT,0.00,VWS V14.01,2013-03-17 01:25:00,
2013-03-16 18:30:00,56.3,43.9,29.90,WSW,252,8.0,14.0,63,0.00,,SCT,0.00,VWS V14.01,2013-03-17 01:30:00,
2013-03-16 18:36:00,56.1,44.9,29.90,WSW,244,13.0,15.0,66,0.00,,SCT,0.00,VWS V14.01,2013-03-17 01:36:00,
2013-03-16 18:41:00,55.8,44.6,29.91,WSW,249,6.0,16.0,66,0.00,,SCT,0.00,VWS V14.01,2013-03-17 01:41:00,
2013-03-16 18:46:00,55.5,44.7,29.91,West,273,13.0,14.0,67,0.00,,SCT,0.00,VWS V14.01,2013-03-17 01:46:00,
2013-03-16 18:51:00,55.1,44.3,29.91,WSW,247,10.0,20.0,67,0.00,,SCT,0.00,VWS V14.01,2013-03-17 01:51:00,
2013-03-16 18:56:00,54.8,44.5,29.91,WSW,255,10.0,20.0,68,0.00,,SCT,0.00,VWS V14.01,2013-03-17 01:56:00,
2013-03-16 19:00:00,54.4,43.7,29.91,WSW,238,12.0,13.0,67,0.00,,SCT,0.00,VWS V14.01,2013-03-17 02:00:00,
2013-03-16 19:05:00,54.2,43.1,29.91,WSW,252,8.0,18.0,66,0.00,,SCT,0.00,VWS V14.01,2013-03-17 02:05:00,
2013-03-16 19:10:00,54.0,42.5,29.91,WSW,257,7.0,18.0,65,0.00,,SCT,0.00,VWS V14.01,2013-03-17 02:10:00,
2013-03-16 19:15:00,53.8,41.9,29.91,WSW,253,8.0,13.0,64,0.00,,SCT,0.00,VWS V14.01,2013-03-17 02:15:00,
2013-03-16 19:20:00,53.6,41.3,29.91,West,269,10.0,14.0,63,0.00,,SCT,0.00,VWS V14.01,2013-03-17 02:20:00,
2013-03-16 19:26:00,53.3,41.0,29.91,WSW,251,14.0,15.0,63,0.00,,SCT,0.00,VWS V14.01,2013-03-17 02:26:00,
2013-03-16 19:31:00,53.1,40.0,29.92,WSW,244,10.0,12.0,61,0.00,,SCT,0.00,VWS V14.01,2013-03-17 02:31:00,
2013-03-16 19:36:00,53.0,39.5,29.91,SW,227,8.0,15.0,60,0.00,,SCT,0.00,VWS V14.01,2013-03-17 02:36:00,
2013-03-16 19:41:00,52.8,38.9,29.92,SW,236,11.0,15.0,59,0.00,,SCT,0.00,VWS V14.01,2013-03-17 02:41:00,
2013-03-16 19:46:00,52.7,38.3,29.92,WSW,250,11.0,13.0,58,0.00,,SCT,0.00,VWS V14.01,2013-03-17 02:46:00,
2013-03-16 19:51:00,52.5,37.7,29.92,West,261,15.0,15.0,57,0.00,,SCT,0.00,VWS V14.01,2013-03-17 02:51:00,
2013-03-16 19:56:00,52.3,37.5,29.92,WSW,246,8.0,15.0,57,0.00,,SCT,0.00,VWS V14.01,2013-03-17 02:56:00,
2013-03-16 20:01:00,52.2,36.5,29.92,WSW,250,13.0,13.0,55,0.00,,SCT,0.00,VWS V14.01,2013-03-17 03:01:00,
2013-03-16 20:06:00,51.9,36.3,29.92,WSW,254,6.0,14.0,55,0.00,,SCT,0.00,VWS V14.01,2013-03-17 03:06:00,
2013-03-16 20:11:00,51.8,35.7,29.92,West,269,6.0,14.0,54,0.00,,SCT,0.00,VWS V14.01,2013-03-17 03:11:00,
2013-03-16 20:16:00,51.7,35.1,29.92,West,267,10.0,12.0,53,0.00,,SCT,0.00,VWS V14.01,2013-03-17 03:16:00,
2013-03-16 20:21:00,51.5,35.0,29.93,WSW,252,11.0,13.0,53,0.00,,SCT,0.00,VWS V14.01,2013-03-17 03:21:00,
2013-03-16 20:25:00,51.3,34.3,29.93,WSW,244,7.0,13.0,52,0.00,,SCT,0.00,VWS V14.01,2013-03-17 03:25:00,
2013-03-16 20:30:00,51.2,33.7,29.93,WSW,256,6.0,11.0,51,0.00,,SCT,0.00,VWS V14.01,2013-03-17 03:30:00,
2013-03-16 20:36:00,51.1,33.6,29.93,West,259,4.0,11.0,51,0.00,,SCT,0.00,VWS V14.01,2013-03-17 03:36:00,
2013-03-16 20:41:00,51.0,34.0,29.93,West,259,6.0,14.0,52,0.00,,SCT,0.00,VWS V14.01,2013-03-17 03:41:00,
2013-03-16 20:46:00,50.9,34.4,29.94,West,260,5.0,12.0,53,0.00,,SCT,0.00,VWS V14.01,2013-03-17 03:46:00,
2013-03-16 20:51:00,50.8,34.8,29.94,WSW,256,5.0,12.0,54,0.00,,SCT,0.00,VWS V14.01,2013-03-17 03:51:00,
2013-03-16 20:56:00,50.5,33.5,29.94,West,263,5.0,12.0,52,0.00,,SCT,0.00,VWS V14.01,2013-03-17 03:56:00,
2013-03-16 21:00:00,50.2,33.3,29.94,West,267,4.0,12.0,52,0.00,,SCT,0.00,VWS V14.01,2013-03-17 04:00:00,
2013-03-16 21:05:00,49.9,33.9,29.94,West,268,8.0,13.0,54,0.00,,SCT,0.00,VWS V14.01,2013-03-17 04:05:00,
2013-03-16 21:10:00,49.5,34.0,29.94,West,259,7.0,18.0,55,0.00,,SCT,0.00,VWS V14.01,2013-03-17 04:10:00,
2013-03-16 21:15:00,49.2,34.2,29.94,WSW,248,10.0,12.0,56,0.00,,SCT,0.00,VWS V14.01,2013-03-17 04:15:00,
2013-03-16 21:20:00,49.1,33.2,29.94,West,259,14.0,19.0,54,0.00,,SCT,0.00,VWS V14.01,2013-03-17 04:20:00,
2013-03-16 21:25:00,49.4,33.0,29.94,WSW,242,12.0,19.0,53,0.00,,SCT,0.00,VWS V14.01,2013-03-17 04:25:00,
2013-03-16 21:30:00,50.0,33.1,29.94,West,260,11.0,12.0,52,0.00,,SCT,0.00,VWS V14.01,2013-03-17 04:30:00,
2013-03-16 21:35:00,50.8,32.8,29.94,WSW,244,13.0,19.0,50,0.00,,SCT,0.00,VWS V14.01,2013-03-17 04:35:00,
2013-03-16 21:40:00,51.7,32.7,29.94,WSW,250,13.0,21.0,48,0.00,,SCT,0.00,VWS V14.01,2013-03-17 04:40:00,
2013-03-16 21:45:00,52.2,32.6,29.95,West,267,14.0,19.0,47,0.00,,SCT,0.00,VWS V14.01,2013-03-17 04:45:00,
2013-03-16 21:50:00,52.6,33.0,29.95,WSW,252,18.0,20.0,47,0.00,,SCT,0.00,VWS V14.01,2013-03-17 04:50:00,
2013-03-16 21:55:00,52.9,32.7,29.95,WSW,249,7.0,20.0,46,0.00,,SCT,0.00,VWS V14.01,2013-03-17 04:55:00,
2013-03-16 22:00:00,53.1,32.3,29.95,WSW,251,11.0,14.0,45,0.00,,SCT,0.00,VWS V14.01,2013-03-17 05:00:00,
2013-03-16 22:05:00,53.1,33.4,29.95,WNW,289,13.0,17.0,47,0.00,,SCT,0.00,VWS V14.01,2013-03-17 05:05:00,
2013-03-16 22:10:00,53.0,32.2,29.95,West,273,14.0,19.0,45,0.00,,SCT,0.00,VWS V14.01,2013-03-17 05:10:00,
2013-03-16 22:15:00,53.1,33.4,29.95,WSW,253,13.0,13.0,47,0.00,,SCT,0.00,VWS V14.01,2013-03-17 05:15:00,
2013-03-16 22:20:00,53.0,32.8,29.95,West,264,8.0,17.0,46,0.00,,SCT,0.00,VWS V14.01,2013-03-17 05:20:00,
2013-03-16 22:25:00,52.9,32.7,29.95,WSW,251,10.0,18.0,46,0.00,,SCT,0.00,VWS V14.01,2013-03-17 05:25:00,
2013-03-16 22:30:00,52.7,33.0,29.96,WSW,257,8.0,10.0,47,0.00,,SCT,0.00,VWS V14.01,2013-03-17 05:30:00,
2013-03-16 22:35:00,52.3,32.7,29.95,WSW,252,11.0,13.0,47,0.00,,SCT,0.00,VWS V14.01,2013-03-17 05:35:00,
2013-03-16 22:40:00,51.8,32.8,29.95,WSW,242,7.0,13.0,48,0.00,,SCT,0.00,VWS V14.01,2013-03-17 05:40:00,
2013-03-16 22:45:00,51.3,31.8,29.96,WSW,251,8.0,11.0,47,0.00,,SCT,0.00,VWS V14.01,2013-03-17 05:45:00,
2013-03-16 22:50:00,50.8,31.8,29.95,WSW,242,8.0,12.0,48,0.00,,SCT,0.00,VWS V14.01,2013-03-17 05:50:00,
2013-03-16 22:55:00,50.4,31.5,29.95,WSW,250,8.0,14.0,48,0.00,,SCT,0.00,VWS V14.01,2013-03-17 05:55:00,
2013-03-16 23:00:00,50.1,32.2,29.95,West,261,7.0,10.0,50,0.00,,SCT,0.00,VWS V14.01,2013-03-17 06:00:00,
2013-03-16 23:05:00,49.9,32.5,29.95,WSW,254,8.0,12.0,51,0.00,,SCT,0.00,VWS V14.01,2013-03-17 06:05:00,
2013-03-16 23:10:00,49.6,32.2,29.95,West,265,8.0,14.0,51,0.00,,SCT,0.00,VWS V14.01,2013-03-17 06:10:00,
2013-03-16 23:15:00,49.2,31.9,29.95,WSW,254,8.0,8.0,51,0.00,,SCT,0.00,VWS V14.01,2013-03-17 06:15:00,
2013-03-16 23:20:00,49.1,31.8,29.95,WSW,254,5.0,13.0,51,0.00,,SCT,0.00,VWS V14.01,2013-03-17 06:20:00,
2013-03-16 23:25:00,49.0,31.2,29.95,West,259,10.0,13.0,50,0.00,,SCT,0.00,VWS V14.01,2013-03-17 06:25:00,
2013-03-16 23:30:00,49.1,31.8,29.95,WSW,239,12.0,14.0,51,0.00,,SCT,0.00,VWS V14.01,2013-03-17 06:30:00,
2013-03-16 23:35:00,49.1,30.8,29.94,West,271,12.0,17.0,49,0.00,,SCT,0.00,VWS V14.01,2013-03-17 06:35:00,
2013-03-16 23:40:00,49.2,30.4,29.95,WSW,246,10.0,17.0,48,0.00,,SCT,0.00,VWS V14.01,2013-03-17 06:40:00,
2013-03-16 23:45:00,49.2,30.4,29.94,WSW,254,8.0,10.0,48,0.00,,SCT,0.00,VWS V14.01,2013-03-17 06:45:00,
2013-03-16 23:50:00,49.2,30.4,29.94,WSW,252,10.0,13.0,48,0.00,,SCT,0.00,VWS V14.01,2013-03-17 06:50:00,
2013-03-16 23:55:00,49.3,31.0,29.94,WSW,254,6.0,13.0,49,0.00,,SCT,0.00,VWS V14.01,2013-03-17 06:55:00,